Retour au catalogue

STARLINK-36792

ActifCommunicationsSSO
NORAD 67804·PAYLOAD·🇺🇸 United States

Lancé Feb 15, 2026 depuis Vandenberg Space Force Base

Loading…

Prochains Passages (prochaines 24 heures)

TLE

FraisSource: CelesTrak SupGP

Époque: Sep 15, 2026, 04:23 UTC

1 67804C 26032H   26258.18312500 -.00054039  00000+0 -16759-2 0  2581
2 67804  97.2851  84.6032 0001892  91.2804   7.5314 15.33495549    15

Suivez STARLINK-36792 en temps réel avec AllMySat

Download on the App Store